| time (UTC) | temp C | wind direction | speed KPH | gust KPH | rain 1hr cm | rain 24hr cm | rain mn cm | humidity % | barometer mb |
| 20260510015516 | 17 | 250 | 4.8 | 22.5 | 0.00 | 0.00 | 0.00 | 69 | 998.7 |
| 20260510014517 | 17 | 252 | 3.2 | 9.7 | 0.00 | 0.00 | 0.00 | 68 | 998.3 |
| 20260510013517 | 17 | 305 | 4.8 | 16.1 | 0.00 | 0.00 | 0.00 | 67 | 998.5 |
| 20260510012516 | 17 | 332 | 6.4 | 24.1 | 0.00 | 0.00 | 0.00 | 67 | 998.3 |
| 20260510011516 | 17 | 83 | 4.8 | 11.3 | 0.00 | 0.00 | 0.00 | 68 | 998.3 |
| 20260510010517 | 17 | 239 | 6.4 | 30.6 | 0.00 | 0.00 | 0.00 | 67 | 998.0 |
| 20260510005517 | 17 | 227 | 11.3 | 32.2 | 0.00 | 0.03 | 0.00 | 65 | 998.2 |
| 20260510004516 | 17 | 140 | 6.4 | 16.1 | 0.00 | 0.03 | 0.00 | 66 | 997.8 |
| 20260510002517 | 17 | 230 | 6.4 | 17.7 | 0.00 | 0.03 | 0.00 | 66 | 997.8 |
| 20260510001517 | 17 | 235 | 11.3 | 29.0 | 0.00 | 0.03 | 0.00 | 66 | 997.7 |
| 20260510000516 | 17 | 191 | 8.0 | 27.4 | 0.00 | 0.03 | 0.00 | 66 | 997.2 |
| 20260509235537 | 17 | 248 | 9.7 | 25.7 | 0.00 | 0.10 | 0.00 | 66 | 996.8 |
| 20260509234517 | 17 | 252 | 8.0 | 20.9 | 0.00 | 0.10 | 0.00 | 67 | 996.5 |
| 20260509233516 | 17 | 253 | 11.3 | 30.6 | 0.00 | 0.10 | 0.00 | 68 | 995.7 |
| 20260509232516 | 17 | 253 | 11.3 | 24.1 | 0.00 | 0.10 | 0.00 | 67 | 995.9 |
| 20260509231517 | 17 | 249 | 11.3 | 24.1 | 0.00 | 0.10 | 0.00 | 68 | 995.9 |
| 20260509230537 | 17 | 251 | 11.3 | 24.1 | 0.00 | 0.10 | 0.00 | 69 | 996.0 |
| 20260509225516 | 17 | 261 | 11.3 | 25.7 | 0.00 | 0.18 | 0.00 | 70 | 995.8 |
| 20260509224517 | 17 | 258 | 11.3 | 30.6 | 0.00 | 0.18 | 0.00 | 71 | 996.0 |
| 20260509223517 | 16 | 259 | 11.3 | 25.7 | 0.00 | 0.18 | 0.00 | 72 | 996.0 |
| 20260509222536 | 16 | 261 | 11.3 | 24.1 | 0.00 | 0.18 | 0.00 | 72 | 996.2 |
| 20260509221516 | 16 | 256 | 11.3 | 29.0 | 0.00 | 0.18 | 0.00 | 72 | 996.2 |
| 20260509220517 | 16 | 260 | 11.3 | 29.0 | 0.00 | 0.18 | 0.00 | 72 | 996.2 |
| 20260509215516 | 16 | 249 | 11.3 | 37.0 | 0.00 | 0.36 | 0.00 | 71 | 996.5 |
| 20260509214536 | 16 | 253 | 11.3 | 32.2 | 0.00 | 0.36 | 0.00 | 72 | 996.3 |
| 20260509213517 | 16 | 251 | 9.7 | 20.9 | 0.00 | 0.36 | 0.00 | 73 | 996.5 |
| 20260509212517 | 15 | 250 | 9.7 | 25.7 | 0.00 | 0.36 | 0.00 | 73 | 996.7 |
| 20260509211516 | 15 | 252 | 9.7 | 33.8 | 0.00 | 0.36 | 0.00 | 72 | 996.7 |
| 20260509205517 | 15 | 256 | 11.3 | 30.6 | 0.00 | 0.46 | 0.00 | 72 | 996.4 |
| 20260509204517 | 15 | 254 | 9.7 | 22.5 | 0.00 | 0.46 | 0.00 | 73 | 996.7 |
| 20260509203516 | 15 | 252 | 11.3 | 25.7 | 0.00 | 0.46 | 0.00 | 74 | 996.7 |
| 20260509202517 | 15 | 263 | 9.7 | 20.9 | 0.00 | 0.46 | 0.00 | 76 | 996.7 |
| 20260509201517 | 14 | 256 | 8.0 | 22.5 | 0.00 | 0.46 | 0.00 | 76 | 996.6 |
| 20260509200537 | 14 | 258 | 8.0 | 22.5 | 0.00 | 0.46 | 0.00 | 77 | 996.7 |
| 20260509195516 | 14 | 257 | 9.7 | 30.6 | 0.00 | 0.51 | 0.00 | 76 | 996.7 |
| 20260509194517 | 13 | 257 | 9.7 | 29.0 | 0.00 | 0.51 | 0.00 | 77 | 996.4 |
| 20260509193517 | 13 | 255 | 9.7 | 24.1 | 0.00 | 0.51 | 0.00 | 77 | 996.2 |
| 20260509192516 | 13 | 252 | 9.7 | 25.7 | 0.00 | 0.51 | 0.00 | 77 | 996.3 |
| 20260509191517 | 13 | 256 | 11.3 | 30.6 | 0.00 | 0.51 | 0.00 | 77 | 996.2 |
| 20260509190517 | 13 | 253 | 11.3 | 27.4 | 0.00 | 0.51 | 0.00 | 77 | 995.8 |
| 20260509185516 | 13 | 249 | 9.7 | 29.0 | 0.00 | 1.02 | 0.00 | 77 | 995.8 |
| 20260509184516 | 13 | 252 | 8.0 | 20.9 | 0.00 | 1.02 | 0.00 | 77 | 996.1 |
| 20260509183517 | 13 | 251 | 8.0 | 20.9 | 0.00 | 1.02 | 0.00 | 77 | 996.4 |
| 20260509182517 | 13 | 247 | 11.3 | 29.0 | 0.00 | 1.02 | 0.00 | 77 | 996.1 |
| 20260509181516 | 13 | 244 | 9.7 | 27.4 | 0.00 | 1.02 | 0.00 | 78 | 996.1 |
| 20260509180518 | 13 | 256 | 11.3 | 29.0 | 0.00 | 1.02 | 0.00 | 76 | 995.7 |
| 20260509175517 | 13 | 256 | 11.3 | 33.8 | 0.00 | 1.14 | 0.00 | 77 | 995.6 |
| 20260509174517 | 13 | 257 | 11.3 | 27.4 | 0.00 | 1.14 | 0.00 | 77 | 995.9 |
| 20260509173516 | 13 | 250 | 8.0 | 19.3 | 0.00 | 1.14 | 0.00 | 77 | 996.1 |
| 20260509172517 | 13 | 245 | 9.7 | 25.7 | 0.00 | 1.14 | 0.00 | 77 | 996.2 |
| 20260509171517 | 13 | 252 | 9.7 | 24.1 | 0.00 | 1.14 | 0.00 | 76 | 995.7 |
| 20260509170536 | 13 | 259 | 8.0 | 24.1 | 0.00 | 1.14 | 0.00 | 75 | 995.7 |
| 20260509165517 | 13 | 258 | 8.0 | 19.3 | 0.00 | 1.24 | 0.00 | 74 | 995.7 |
| 20260509164537 | 13 | 261 | 9.7 | 27.4 | 0.00 | 1.24 | 0.00 | 74 | 995.6 |
| 20260509163516 | 13 | 259 | 9.7 | 20.9 | 0.00 | 1.24 | 0.00 | 74 | 995.8 |
| 20260509162516 | 13 | 256 | 11.3 | 25.7 | 0.00 | 1.24 | 0.00 | 75 | 995.6 |
| 20260509161517 | 13 | 262 | 9.7 | 24.1 | 0.00 | 1.24 | 0.00 | 76 | 995.8 |
| 20260509160536 | 13 | 254 | 9.7 | 24.1 | 0.00 | 1.24 | 0.00 | 76 | 995.7 |
| 20260509155516 | 13 | 251 | 9.7 | 17.7 | 0.00 | 1.24 | 0.00 | 77 | 995.8 |
| 20260509154537 | 13 | 263 | 11.3 | 27.4 | 0.00 | 1.24 | 0.00 | 77 | 995.8 |
| 20260509153517 | 13 | 264 | 9.7 | 22.5 | 0.00 | 1.24 | 0.00 | 77 | 996.1 |
| 20260509152517 | 13 | 249 | 8.0 | 16.1 | 0.00 | 1.24 | 0.00 | 76 | 996.7 |
| 20260509151516 | 13 | 259 | 8.0 | 16.1 | 0.00 | 1.24 | 0.00 | 76 | 997.0 |
| 20260509150517 | 13 | 245 | 8.0 | 24.1 | 0.00 | 1.24 | 0.00 | 76 | 997.2 |
| 20260509145517 | 13 | 240 | 8.0 | 30.6 | 0.00 | 1.27 | 0.00 | 76 | 997.2 |
| 20260509144536 | 13 | 265 | 6.4 | 20.9 | 0.00 | 1.27 | 0.00 | 76 | 997.3 |
| 20260509143516 | 13 | 214 | 6.4 | 20.9 | 0.00 | 1.27 | 0.00 | 75 | 997.3 |
| 20260509142517 | 13 | 173 | 6.4 | 12.9 | 0.00 | 1.27 | 0.00 | 75 | 997.2 |
| 20260509141517 | 13 | 224 | 6.4 | 16.1 | 0.00 | 1.27 | 0.00 | 75 | 997.0 |
| 20260509140517 | 13 | 242 | 9.7 | 22.5 | 0.00 | 1.27 | 0.00 | 76 | 996.6 |
| 20260509135516 | 13 | 234 | 6.4 | 17.7 | 0.00 | 1.27 | 0.00 | 77 | 996.6 |
| 20260509134537 | 13 | 259 | 8.0 | 24.1 | 0.00 | 1.27 | 0.00 | 78 | 996.5 |
| 20260509133517 | 13 | 271 | 6.4 | 24.1 | 0.00 | 1.27 | 0.00 | 78 | 996.6 |
| 20260509132516 | 13 | 239 | 8.0 | 29.0 | 0.00 | 1.27 | 0.00 | 78 | 996.2 |
| 20260509131518 | 13 | 254 | 8.0 | 22.5 | 0.00 | 1.27 | 0.00 | 78 | 996.2 |
| 20260509130517 | 13 | 248 | 8.0 | 24.1 | 0.00 | 1.27 | 0.00 | 77 | 996.3 |
| 20260509125637 | 13 | 240 | 8.0 | 22.5 | 0.00 | 1.27 | 0.00 | 76 | 996.0 |
| 20260509124517 | 13 | 288 | 8.0 | 35.4 | 0.00 | 1.27 | 0.00 | 77 | 995.8 |
| 20260509123517 | 13 | 262 | 8.0 | 32.2 | 0.00 | 1.27 | 0.00 | 77 | 996.4 |
| 20260509122517 | 13 | 261 | 8.0 | 19.3 | 0.00 | 1.27 | 0.00 | 77 | 996.9 |
| 20260509121516 | 13 | 244 | 8.0 | 35.4 | 0.00 | 1.27 | 0.00 | 77 | 997.3 |
| 20260509120516 | 13 | 197 | 8.0 | 30.6 | 0.00 | 1.27 | 0.00 | 76 | 997.4 |
| 20260509115517 | 13 | 243 | 6.4 | 17.7 | 0.00 | 1.32 | 1.27 | 76 | 997.5 |
| 20260509114517 | 13 | 198 | 3.2 | 12.9 | 0.00 | 1.32 | 1.27 | 77 | 997.5 |
| 20260509113516 | 13 | 249 | 6.4 | 20.9 | 0.00 | 1.32 | 1.27 | 79 | 997.3 |
| 20260509112516 | 13 | 292 | 6.4 | 17.7 | 0.00 | 1.32 | 1.27 | 77 | 997.2 |
| 20260509111517 | 13 | 279 | 6.4 | 16.1 | 0.00 | 1.32 | 1.27 | 78 | 997.2 |
| 20260509110537 | 13 | 34 | 8.0 | 29.0 | 0.00 | 1.32 | 1.27 | 77 | 997.4 |
| 20260509105516 | 13 | 329 | 9.7 | 27.4 | 0.00 | 1.52 | 1.27 | 76 | 997.6 |
| 20260509104516 | 13 | 10 | 9.7 | 24.1 | 0.00 | 1.52 | 1.27 | 76 | 997.2 |
| 20260509103518 | 13 | 50 | 11.3 | 25.7 | 0.00 | 1.52 | 1.27 | 76 | 997.2 |
| 20260509102518 | 13 | 260 | 11.3 | 33.8 | 0.00 | 1.52 | 1.27 | 75 | 997.4 |
| 20260509101516 | 13 | 146 | 9.7 | 19.3 | 0.00 | 1.52 | 1.27 | 75 | 997.0 |
| 20260509100516 | 14 | 248 | 9.7 | 33.8 | 0.00 | 1.52 | 1.27 | 76 | 996.7 |
| 20260509095518 | 14 | 244 | 9.7 | 30.6 | 0.00 | 2.03 | 1.27 | 77 | 996.8 |
| 20260509094517 | 14 | 245 | 11.3 | 32.2 | 0.00 | 2.03 | 1.27 | 76 | 996.4 |
| 20260509093517 | 14 | 248 | 11.3 | 29.0 | 0.00 | 2.03 | 1.27 | 77 | 996.5 |
| 20260509092516 | 14 | 264 | 8.0 | 29.0 | 0.00 | 2.03 | 1.27 | 77 | 996.6 |
| 20260509091516 | 14 | 259 | 8.0 | 22.5 | 0.00 | 2.03 | 1.27 | 77 | 996.8 |
| 20260509090517 | 14 | 259 | 8.0 | 27.4 | 0.00 | 2.03 | 1.27 | 79 | 997.2 |
| 20260509085517 | 14 | 284 | 6.4 | 20.9 | 0.00 | 2.16 | 1.27 | 79 | 997.5 |
| 20260509084537 | 14 | 260 | 6.4 | 24.1 | 0.00 | 2.16 | 1.27 | 78 | 997.5 |
| 20260509082518 | 14 | 298 | 6.4 | 25.7 | 0.00 | 2.16 | 1.27 | 79 | 997.7 |
| 20260509081517 | 14 | 280 | 6.4 | 19.3 | 0.00 | 2.16 | 1.27 | 79 | 997.4 |
| 20260509080537 | 14 | 284 | 8.0 | 25.7 | 0.00 | 2.16 | 1.27 | 79 | 997.4 |
| 20260509075516 | 14 | 261 | 9.7 | 33.8 | 0.00 | 2.39 | 1.27 | 78 | 997.3 |
| 20260509074518 | 14 | 246 | 9.7 | 25.7 | 0.00 | 2.39 | 1.27 | 78 | 997.3 |
| 20260509073517 | 14 | 265 | 11.3 | 30.6 | 0.00 | 2.39 | 1.27 | 78 | 996.7 |
| 20260509072517 | 14 | 260 | 9.7 | 29.0 | 0.00 | 2.39 | 1.27 | 79 | 996.3 |
| 20260509071536 | 14 | 258 | 11.3 | 20.9 | 0.00 | 2.39 | 1.27 | 79 | 996.9 |
| 20260509070517 | 14 | 263 | 8.0 | 20.9 | 0.00 | 2.39 | 1.27 | 80 | 996.7 |
| 20260509065517 | 14 | 275 | 8.0 | 24.1 | 0.00 | 2.39 | 1.27 | 81 | 996.7 |
| 20260509064517 | 14 | 274 | 8.0 | 37.0 | 0.00 | 2.39 | 1.27 | 81 | 996.6 |
| 20260509063537 | 14 | 259 | 6.4 | 20.9 | 0.00 | 2.39 | 1.27 | 81 | 997.0 |
| 20260509062516 | 14 | 267 | 8.0 | 20.9 | 0.00 | 2.39 | 1.27 | 81 | 997.0 |
| 20260509061517 | 14 | 249 | 8.0 | 30.6 | 0.00 | 2.39 | 1.27 | 81 | 997.4 |
| 20260509060517 | 14 | 254 | 6.4 | 20.9 | 0.00 | 2.39 | 1.27 | 81 | 997.7 |
| 20260509055516 | 14 | 252 | 8.0 | 19.3 | 0.00 | 2.39 | 1.27 | 81 | 998.1 |
| 20260509054516 | 15 | 250 | 4.8 | 19.3 | 0.00 | 2.39 | 1.27 | 82 | 998.3 |
| 20260509053518 | 15 | 256 | 4.8 | 17.7 | 0.00 | 2.39 | 1.27 | 81 | 998.4 |
| 20260509052517 | 15 | 45 | 3.2 | 9.7 | 0.00 | 2.39 | 1.27 | 80 | 998.3 |
| 20260509051536 | 15 | 195 | 4.8 | 14.5 | 0.00 | 2.39 | 1.27 | 80 | 998.4 |
| 20260509050516 | 15 | 272 | 3.2 | 17.7 | 0.00 | 2.39 | 1.27 | 80 | 998.2 |
| 20260509045518 | 15 | 249 | 4.8 | 20.9 | 0.00 | 2.39 | 1.27 | 79 | 998.3 |
| 20260509044516 | 15 | 218 | 8.0 | 17.7 | 0.00 | 2.39 | 1.27 | 78 | 998.2 |
| 20260509043517 | 15 | 274 | 4.8 | 11.3 | 0.00 | 2.39 | 1.27 | 79 | 998.2 |
| 20260509042517 | 16 | 254 | 6.4 | 41.8 | 0.00 | 2.39 | 1.27 | 79 | 997.9 |
| 20260509041517 | 16 | 253 | 6.4 | 32.2 | 0.00 | 2.39 | 1.27 | 78 | 997.5 |
| 20260509040516 | 16 | 308 | 8.0 | 22.5 | 0.00 | 2.39 | 1.27 | 78 | 997.2 |
| 20260509035518 | 16 | 283 | 8.0 | 20.9 | 0.00 | 2.39 | 1.27 | 79 | 997.0 |
| 20260509034517 | 16 | 286 | 8.0 | 24.1 | 0.00 | 2.39 | 1.27 | 80 | 997.0 |
| 20260509033516 | 16 | 266 | 8.0 | 17.7 | 0.00 | 2.39 | 1.27 | 80 | 997.1 |
| 20260509032536 | 16 | 273 | 6.4 | 14.5 | 0.00 | 2.39 | 1.27 | 79 | 996.9 |
| 20260509031517 | 16 | 249 | 8.0 | 20.9 | 0.00 | 2.39 | 1.27 | 80 | 996.7 |
| 20260509030537 | 16 | 264 | 6.4 | 16.1 | 0.00 | 2.39 | 1.27 | 80 | 996.9 |
| 20260509025517 | 16 | 305 | 6.4 | 27.4 | 0.00 | 2.39 | 1.27 | 80 | 996.8 |
| 20260509024518 | 16 | 35 | 6.4 | 16.1 | 0.00 | 2.39 | 1.27 | 80 | 996.7 |
| 20260509023517 | 16 | 246 | 8.0 | 22.5 | 0.00 | 2.39 | 1.27 | 79 | 996.8 |
| 20260509022517 | 16 | 241 | 6.4 | 17.7 | 0.00 | 2.39 | 1.27 | 80 | 997.0 |
| 20260509021516 | 16 | 268 | 4.8 | 16.1 | 0.00 | 2.39 | 1.27 | 80 | 997.3 |
| 20260509020519 | 16 | 265 | 6.4 | 22.5 | 0.00 | 2.39 | 1.27 | 81 | 997.5 |